User: anonymous   Login
Location: Unspecified
(0.0000°N, 0.0000°E)
Time: 19:49:04
(UTC+00:00)
Language:

PROBA 2 - Orbit

View from above orbital plane
View from above orbital plane
View from above satellite
View from above satellite

Ground track
Ground track

The orbit data is extracted from the following two-line orbital elements,

1 36037U 09059B   17021.53611821  .00000011  00000-0  13419-4 0  9994
2 36037  98.2548 217.2640 0014500  69.9746 290.3009 14.52983468382837
Epoch (UTC): 21 January 2017 12:52:00
Eccentricity: 0.0014500
inclination: 98.2548°
perigee height: 705 km
apogee height: 726 km
right ascension of ascending node: 217.2640°
argument of perigee: 69.9746°
revolutions per day: 14.52983468
mean anomaly at epoch: 290.3009°
orbit number at epoch: 38283

The dashed part of the orbit path shows where the satellite is in the earth's shadow,  

DLR